Tracking 30116 objects as of 10-Feb-2025
HD Live streaming from Space Station
objects crossing your sky now

STARLINK-11529

Track STARLINK-11529 now!
10-day predictions
STARLINK-11529 is classified as:


NORAD ID: 62599
Int'l Code: 2025-008N
Perigee: 342.8 km
Apogee: 344.5 km
Inclination: 43.0 °
Period: 91.3 minutes
Semi major axis: 6714 km
RCS: Unknown
Launch date: January 13, 2025
Source: United States (US)
Launch site: AIR FORCE EASTERN TEST RANGE (AFETR)
Your satellite tracking list
Your tracking list is empty




NASA's NSSDC Master Catalog

Two Line Element Set (TLE):
1 62599U 25008N   25041.08249116 -.00000467  00000-0  18255-6 0  9994
2 62599  43.0006 333.9090 0001263 288.9660  71.1073 15.77855285  5539
Source of the keplerian elements: AFSPC